Stations météo

réclame
Mon MeteoGroup
Walney Island, Grande-Bretagne (3214): Température de l'air & dewpoint: 13.07.2018 18:00:00 - 19.07.2018 18:00:00 (BST)Walney Island, Grande-Bretagne (3214): Température de l'air -20cm & Température de l'air -100cm: 13.07.2018 18:00:00 - 19.07.2018 18:00:00 (BST)Walney Island, Grande-Bretagne (3214): Vitesse du vent & gusts: 13.07.2018 18:00:00 - 19.07.2018 18:00:00 (BST)Walney Island, Grande-Bretagne (3214): Direction du vent: 13.07.2018 18:00:00 - 19.07.2018 18:00:00 (BST)Walney Island, Grande-Bretagne (3214): reduced air pressure: 13.07.2018 18:00:00 - 19.07.2018 18:00:00 (BST)Walney Island, Grande-Bretagne (3214): visibility: 13.07.2018 18:00:00 - 19.07.2018 18:00:00 (BST)Walney Island, Grande-Bretagne (3214): Quantités de précipitations: 13.07.2018 18:00:00 - 19.07.2018 18:00:00 (BST)
Date & Time tt [°C] td [°C] tt -20cm [°C] tt -100cm [°C] ff [km/h] ff [knt] fx [km/h] fx [knt] dd ppp [hPa] vv [km] rr [mm]
19.07.2018 18:00:00 18,5 12,3 - - 9 5 - - WNW 1018,5 50 0,0
19.07.2018 17:00:00 19,0 13,2 - - 9 5 - - WNW 1018,9 18 0,0
19.07.2018 16:00:00 18,6 12,0 - - 13 7 - - W 1019,4 21 0,0
19.07.2018 15:00:00 18,0 13,9 - - 15 8 - - W 1019,6 14 0,0
19.07.2018 14:00:00 18,0 14,7 - - 13 7 - - W 1019,5 11 0,0
19.07.2018 13:00:00 18,6 14,6 - - 15 8 - - WSW 1019,6 26 0,0
19.07.2018 12:00:00 18,6 12,8 - - 13 7 - - WSW 1019,7 24 0,0
19.07.2018 11:00:00 18,1 14,5 - - 15 8 - - W 1019,7 19 0,0
19.07.2018 10:00:00 18,1 15,0 18,7 17,2 11 6 - - WSW 1019,6 16 0,0
19.07.2018 09:00:00 17,7 14,8 - - 8 4 - - WSW 1019,5 16 0,0
19.07.2018 08:00:00 16,6 15,4 - - 2 1 54 29 SW 1019,4 17 0,0
19.07.2018 07:00:00 14,9 14,7 - - 2 1 - - NE 1019,4 8 0,0
19.07.2018 06:00:00 13,3 12,9 - - 4 2 - - WNW 1019,2 5 0,0
19.07.2018 05:00:00 12,9 12,3 - - 4 2 - - WNW 1019,4 5 0,0
19.07.2018 04:00:00 13,6 12,4 - - 5 3 - - NW 1019,6 8 0,0
19.07.2018 03:00:00 14,9 13,7 - - 9 5 - - NW 1019,4 13 0,0
19.07.2018 02:00:00 15,3 13,8 - - 13 7 - - WNW 1019,3 15 0,0
19.07.2018 01:00:00 15,6 13,7 - - 8 4 - - W 1019,3 16 0,0
19.07.2018 00:00:00 15,8 13,8 - - 5 3 - - W 1019,1 23 0,0
18.07.2018 23:00:00 15,9 14,0 - - 4 2 - - W 1019,0 30 0,0
18.07.2018 22:00:00 16,3 13,9 - - 5 3 - - W 1019,0 30 0,0
18.07.2018 21:00:00 17,0 14,1 - - 5 3 - - W 1018,8 30 0,0
18.07.2018 20:00:00 17,3 14,0 - - 4 2 - - NW 1018,5 40 0,0
18.07.2018 19:00:00 17,3 14,1 - - 8 4 - - W 1018,5 35 0,0
18.07.2018 18:00:00 18,6 13,2 - - 8 4 - - W 1018,3 29 0,0
18.07.2018 17:00:00 18,8 13,7 - - 9 5 - - W 1018,3 50 0,0
18.07.2018 16:00:00 18,7 13,3 - - 8 4 - - NW 1017,9 13 0,0
18.07.2018 15:00:00 19,7 14,2 - - 11 6 - - WSW 1018,0 35 0,0
18.07.2018 14:00:00 19,6 13,6 - - 11 6 - - SW 1017,8 40 0,0
18.07.2018 13:00:00 19,4 13,1 - - 11 6 - - S 1017,5 40 0,0
18.07.2018 12:00:00 19,1 12,6 - - 16 9 - - S 1017,4 40 0,0
18.07.2018 11:00:00 18,8 13,1 - - 11 6 - - SE 1017,3 30 0,0
18.07.2018 10:00:00 17,2 11,9 18,4 17,2 11 6 - - ESE 1017,5 29 0,0
18.07.2018 09:00:00 15,7 11,7 - - 13 7 - - ESE 1017,3 40 0,0
18.07.2018 08:00:00 13,9 11,1 - - 13 7 - - ESE 1017,2 30 0,0
18.07.2018 07:00:00 13,5 11,3 - - 13 7 - - ESE 1016,8 40 0,0
18.07.2018 06:00:00 12,4 11,0 - - 11 6 - - ESE 1016,6 35 0,0
18.07.2018 05:00:00 12,4 11,1 - - 13 7 - - E 1016,4 30 0,0
18.07.2018 04:00:00 11,8 10,7 - - 11 6 - - ESE 1016,3 21 0,0
18.07.2018 03:00:00 11,6 10,4 - - 8 4 - - ESE 1016,3 35 0,0
18.07.2018 02:00:00 10,8 10,0 - - 8 4 - - E 1016,3 40 0,0
18.07.2018 01:00:00 10,7 9,3 - - 2 1 - - N 1016,4 26 0,0
18.07.2018 00:00:00 12,4 9,9 - - 8 4 - - WSW 1016,3 50 0,0
17.07.2018 23:00:00 12,3 9,3 - - 9 5 - - WSW 1016,2 40 0,0
17.07.2018 22:00:00 13,2 8,6 - - 5 3 - - W 1016,1 40 0,0
17.07.2018 21:00:00 14,7 10,0 - - 8 4 - - WSW 1015,9 45 0,0
17.07.2018 20:00:00 15,9 9,7 - - 15 8 - - W 1015,6 50 0,0
17.07.2018 19:00:00 16,9 10,2 - - 15 8 - - W 1015,3 40 0,0
17.07.2018 18:00:00 17,0 11,9 - - 16 9 - - WSW 1015,4 25 0,0
17.07.2018 17:00:00 17,3 11,9 - - 15 8 - - WSW 1015,2 30 0,0
17.07.2018 16:00:00 17,5 12,7 - - 15 8 - - WSW 1015,1 40 0,0
17.07.2018 15:00:00 17,7 12,7 - - 15 8 - - WSW 1015,0 45 0,0
17.07.2018 14:00:00 16,6 12,5 - - 8 4 - - W 1015,0 40 0,0
17.07.2018 13:00:00 16,2 12,9 - - 11 6 - - WNW 1014,9 35 0,0
17.07.2018 12:00:00 15,6 12,4 - - 11 6 - - WNW 1014,8 35 0,0
17.07.2018 11:00:00 15,6 12,7 - - 13 7 - - WNW 1014,5 45 0,0
17.07.2018 10:00:00 15,8 12,5 18,7 17,2 13 7 - - WNW 1014,1 50 0,0
17.07.2018 09:00:00 15,7 12,6 - - 15 8 - - WNW 1014,0 50 0,0
17.07.2018 08:00:00 15,6 12,3 - - 11 6 - - WNW 1013,6 35 0,0
17.07.2018 07:00:00 15,2 12,4 - - 16 9 - - WNW 1013,4 45 0,0
17.07.2018 06:00:00 15,0 12,9 - - 13 7 - - WNW 1013,0 29 0,0
17.07.2018 05:00:00 15,0 13,5 - - 11 6 - - W 1012,7 30 0,0
17.07.2018 04:00:00 14,8 13,3 - - 9 5 - - W 1013,0 30 0,0
17.07.2018 03:00:00 14,7 12,9 - - 9 5 - - W 1013,1 35 0,0
17.07.2018 02:00:00 13,7 11,5 - - 8 4 - - W 1013,4 45 0,0
17.07.2018 01:00:00 14,1 11,3 - - 15 8 - - W 1013,8 45 0,0
17.07.2018 00:00:00 14,1 12,0 - - 18 10 - - W 1013,9 40 0,0
16.07.2018 23:00:00 14,7 11,9 - - 22 12 - - WNW 1013,7 35 0,0
16.07.2018 22:00:00 14,5 12,0 - - 18 10 - - WNW 1013,5 45 0,0
16.07.2018 21:00:00 14,9 11,9 - - 18 10 - - WNW 1012,7 50 0,0
16.07.2018 20:00:00 14,8 12,6 - - 15 8 - - NW 1012,5 50 0,0
16.07.2018 19:00:00 14,6 13,3 - - 16 9 - - NW 1012,7 45 0,0
16.07.2018 18:00:00 14,5 13,6 - - 9 5 - - NW 1012,6 11 3,6
16.07.2018 17:00:00 14,9 12,9 - - 9 5 - - WNW 1013,1 15 0,4
16.07.2018 16:00:00 16,6 11,9 - - 11 6 - - W 1013,2 30 0,0
16.07.2018 15:00:00 17,5 12,7 - - 9 5 - - WSW 1013,4 40 0,0
16.07.2018 14:00:00 17,9 12,3 - - 4 2 - - W 1013,4 30 0,0
16.07.2018 13:00:00 17,5 13,5 - - 5 3 - - WSW 1013,7 45 0,0
16.07.2018 12:00:00 15,8 13,4 - - 13 7 - - WNW 1013,8 12 0,0
16.07.2018 11:00:00 16,1 12,8 - - 11 6 - - WNW 1013,5 50 0,0
16.07.2018 10:00:00 16,2 13,5 19,4 17,2 13 7 - - WNW 1013,3 50 0,0
16.07.2018 09:00:00 15,6 14,4 - - 11 6 - - WNW 1013,2 45 0,0
16.07.2018 08:00:00 15,6 15,2 - - 11 6 - - WNW 1013,0 35 0,2
16.07.2018 07:00:00 15,8 15,2 - - 13 7 - - WSW 1012,7 14 0,2
16.07.2018 06:00:00 16,1 15,6 - - 11 6 - - SW 1012,6 14 0,0
16.07.2018 05:00:00 16,5 16,0 - - 16 9 - - SW 1012,7 17 0,0
16.07.2018 04:00:00 16,6 16,3 - - 15 8 - - S 1013,0 6 1,2
16.07.2018 03:00:00 16,3 15,9 - - 21 11 - - S 1013,2 3,7 1,8
16.07.2018 02:00:00 16,7 15,4 - - 22 12 - - SSW 1013,6 3,9 0,0
16.07.2018 01:00:00 18,1 15,7 - - 15 8 - - SSW 1013,5 30 0,0
16.07.2018 00:00:00 17,9 15,6 - - 11 6 - - SW 1013,7 35 0,0
15.07.2018 23:00:00 18,0 15,4 - - 5 3 - - S 1013,8 28 0,0
15.07.2018 22:00:00 18,1 14,4 - - 11 6 - - SW 1013,9 45 0,0
15.07.2018 21:00:00 18,1 15,4 - - 8 4 - - SW 1013,9 45 0,0
15.07.2018 20:00:00 18,7 14,8 - - 5 3 - - WSW 1013,9 50 0,0
15.07.2018 19:00:00 19,6 14,8 - - 9 5 - - WSW 1013,9 40 0,0
15.07.2018 18:00:00 21,2 15,5 - - 9 5 - - SW 1014,2 40 0,0
15.07.2018 17:00:00 21,3 15,0 - - 11 6 - - SW 1014,5 35 0,0
15.07.2018 16:00:00 20,9 15,0 - - 9 5 - - SSW 1014,8 30 0,0
15.07.2018 15:00:00 20,8 14,4 - - 13 7 - - S 1015,0 35 0,0
15.07.2018 14:00:00 21,1 14,5 - - 16 9 - - S 1015,3 30 0,0
15.07.2018 13:00:00 20,2 14,6 - - 15 8 - - S 1015,5 23 0,0
15.07.2018 12:00:00 20,2 14,9 - - 16 9 - - S 1015,5 50 0,0
15.07.2018 11:00:00 20,3 15,6 - - 16 9 - - S 1015,5 50 0,0
15.07.2018 10:00:00 18,9 15,0 19,0 17,2 15 8 - - SSW 1015,7 29 0,0
15.07.2018 09:00:00 18,9 15,4 - - 18 10 - - S 1015,8 29 0,0
15.07.2018 08:00:00 18,3 15,3 - - 16 9 - - S 1015,7 40 0,0
15.07.2018 07:00:00 16,8 14,8 - - 13 7 - - SE 1015,6 29 0,0
15.07.2018 06:00:00 16,0 14,4 - - 11 6 - - SSE 1015,6 26 0,0
15.07.2018 05:00:00 16,3 14,6 - - 13 7 - - SE 1015,9 30 0,0
15.07.2018 04:00:00 16,7 14,1 - - 15 8 - - S 1016,3 40 0,0
15.07.2018 03:00:00 17,0 14,2 - - 18 10 - - S 1016,3 40 0,0
15.07.2018 02:00:00 16,7 15,0 - - 15 8 - - SSW 1016,6 30 0,0
15.07.2018 01:00:00 16,4 14,8 - - 11 6 - - S 1016,9 29 0,0
15.07.2018 00:00:00 16,5 14,7 - - 11 6 - - SSW 1017,1 30 0,0
14.07.2018 23:00:00 16,2 14,2 - - 9 5 - - SW 1017,5 50 0,0
14.07.2018 22:00:00 16,5 13,9 - - 8 4 - - W 1017,6 40 0,0
14.07.2018 21:00:00 18,1 13,4 - - 8 4 - - WSW 1017,3 40 0,0
14.07.2018 20:00:00 19,9 13,4 - - 8 4 - - W 1017,2 45 0,0
14.07.2018 19:00:00 20,1 14,3 - - 9 5 - - WNW 1017,4 40 0,0
14.07.2018 18:00:00 20,2 14,6 - - 9 5 - - W 1017,8 40 0,0
14.07.2018 17:00:00 20,3 14,4 - - 8 4 - - WSW 1018,2 40 0,0
14.07.2018 16:00:00 19,1 14,3 - - 9 5 - - W 1018,8 45 0,0
14.07.2018 15:00:00 19,8 14,3 - - 11 6 - - W 1019,3 27 0,0
14.07.2018 14:00:00 19,9 13,2 - - 9 5 - - SW 1019,8 35 0,0
14.07.2018 13:00:00 20,1 13,9 - - 11 6 - - SSW 1019,8 40 0,0
14.07.2018 12:00:00 18,8 14,1 - - 13 7 - - SSW 1020,0 35 0,0
14.07.2018 11:00:00 19,1 14,4 - - 13 7 - - S 1020,1 30 0,0
14.07.2018 10:00:00 18,3 14,4 18,5 17,2 11 6 - - S 1020,2 45 0,0
14.07.2018 09:00:00 17,2 13,0 - - 11 6 - - S 1020,3 40 0,0
14.07.2018 08:00:00 16,7 13,6 - - 9 5 - - S 1020,4 30 0,0
14.07.2018 07:00:00 15,2 14,1 - - 4 2 - - NE 1020,5 23 0,0
14.07.2018 06:00:00 13,2 12,1 - - 5 3 - - N 1020,5 16 0,0
14.07.2018 05:00:00 12,9 11,3 - - 9 5 - - WSW 1020,6 35 0,0
14.07.2018 04:00:00 12,9 10,7 - - 9 5 - - SW 1020,8 35 0,0
14.07.2018 03:00:00 13,2 11,0 - - 11 6 - - WSW 1021,0 50 0,0
14.07.2018 02:00:00 13,3 11,3 - - 9 5 - - SW 1021,1 45 0,0
14.07.2018 01:00:00 13,1 10,8 - - 9 5 - - SW 1021,2 50 0,0
14.07.2018 00:00:00 13,8 11,6 - - 9 5 - - WSW 1021,4 50 0,0
13.07.2018 23:00:00 14,7 12,5 - - 11 6 - - W 1021,3 50 0,0
13.07.2018 22:00:00 15,0 13,1 - - 8 4 - - WSW 1021,4 28 0,0
13.07.2018 21:00:00 16,3 13,6 - - 9 5 - - W 1021,0 50 0,0
13.07.2018 20:00:00 16,5 13,6 - - 11 6 - - WNW 1020,8 40 0,0
13.07.2018 19:00:00 17,7 14,5 - - 13 7 - - WNW 1021,0 30 0,0
13.07.2018 18:00:00 18,1 14,9 - - 11 6 - - WNW 1021,3 28 0,0

tt = Température de l'air
td = dewpoint
tt -20cm = Température de l'air -20cm
tt -100cm = Température de l'air -100cm
ff = Vitesse du vent
fx = gusts
dd = Direction du vent
ppp = reduced air pressure
vv = visibility
rr = Quantités de précipitations

stations d'obs. à proximité